Regional Weather Roundup
Issued by NWS Wakefield, VA

Home | Current Version | Previous Version | Text Only | Print | Product List | Glossary Off
Versions: 1 2 3 4 5 6 7 8 9 10 11 12 13 14 15 16 17 18 19 20 21 22 23 24 25 26 27 28 29 30 31 32 33 34 35 36 37 38 39 40 41 42 43 44 45 46 47 48 49 50

000
ASUS41 KAKQ 231815
RWRAKQ

REGIONAL WEATHER ROUNDUP
NATIONAL WEATHER SERVICE WAKEFIELD VA
200 PM EDT MON MAY 23 2016

Note: "fair" indicates few or no clouds below 12,000 feet with no
significant weather and/or obstructions to visibility. * = Denotes
station may not report precipitation (e.g., rain,snow,etc.),
thunder or fog.

VAZ042-051-052>054-056-231900-
NORTHERN VIRGINIA

CITY           SKY/WX    TMP DP  RH WIND       PRES   REMARKS
WASH NATIONAL  CLOUDY    71  56  58 W8        29.93F
DULLES         PTSUNNY   70  52  52 N9        29.95F
FORT BELVOIR   DRIZZLE   70  57  64 W6        29.93F
QUANTICO       PTSUNNY   70  54  56 NW9       29.94F
FREDERICKSBRG* FAIR      70  55  60 NW5       29.94F
STAFFORD*      PTSUNNY   70  53  55 W8        29.98F
WARRENTON      FAIR      73  48  41 N6        29.95F
CULPEPER*      PTSUNNY   70  57  62 NW6       29.97F
MANASSAS*      PTSUNNY   72  55  56 CALM      29.95F
LEESBURG*      FAIR      72  59  64 NW13G18   29.96F
WINCHESTER     PTSUNNY   70  52  52 NE3       29.97F
FRONT ROYAL*   FAIR      68  55  64 N3        29.97S
LURAY*         MOCLDY    64  59  82 NE3       29.98S
$$

VAZ048-049-060>072-079>083-231900-
CENTRAL AND SOUTH CENTRAL VIRGINIA

CITY           SKY/WX    TMP DP  RH WIND       PRES   REMARKS
RICHMOND       LGT RAIN  62  56  80 NW7       29.96S
CHESTERFIELD*  MOCLDY    64  45  48 N7        29.98S
PETERSBURG*    LGT RAIN  62  53  73 N7        29.98R
HANOVER        PTSUNNY   66  55  67 N6        29.97S
TAPPAHANNOCK*  LGT RAIN  65  55  71 N7        29.96R
QUINTON*       CLOUDY    60  57  89 N5        29.95S
CHARLOTTSVILLE FAIR      69  52  54 NW6       29.98F
GORDONSVILLE*  FAIR      69  56  63 SW7       29.97F
ORANGE*        FAIR      72  55  56 CALM      29.98F
LOUISA*        FAIR      70  59  68 W8        29.97S
BUMPASS*       MOCLDY    66  56  70 NW3       29.97S
FARMVILLE*     FAIR      69  49  50 NE9       29.98S
CREWE*         FAIR      67  50  53 NE5       29.97F
FORT PICKETT*  NOT AVBL
CHASE CITY*    FAIR      65  48  53 N8G18     29.98F
CLARKSVILLE*   CLOUDY    64  55  72 NW6G16    29.97F
SOUTH HILL*    CLOUDY    65  52  62 N9G16     30.02S
LAWRENCEVILLE* CLOUDY    64  50  61 N9G17     29.97R
EMPORIA*       CLOUDY    64  52  63 NW15      29.96S
$$

VAZ088>098-231900-
SOUTHEAST VIRGINIA

CITY           SKY/WX    TMP DP  RH WIND       PRES   REMARKS
NORFOLK        FAIR      66  56  70 NE14      29.90R
VIRGINIA BEACH PTSUNNY   67  50  54 NE21G28   29.90R
NORFOLK NAVAL  PTSUNNY   66  57  72 N16       29.92S
WEST POINT*    PTSUNNY   63  55  77 NW8       29.95R
SALUDA*        CLOUDY    63  57  81 N10       29.92S
NEWPORT NEWS   FAIR      68  54  60 NE16G23   29.92R
LANGLEY AFB    DRIZZLE   64  54  68 N15G25    29.91R
FORT EUSTIS    PTSUNNY   67  53  60 N10       29.91R
WILLIAMSBURG*  FAIR      63  55  77 CALM      29.94R
HR EXEC AP*    CLOUDY    66  54  63 NE12G22   29.93S
FRANKLIN*      CLOUDY    64  51  63 NE7       29.93R
US460-WAKEFLD  LGT RAIN  63  52  67 N9        29.94R
$$

VAZ020-022-025-037-045-231900-
WEST CENTRAL AND SOUTHWEST VIRGINIA

CITY           SKY/WX    TMP DP  RH WIND       PRES   REMARKS
STAUNTON*        N/A    N/A N/A N/A MISG        N/A
WAYNESBORO*    MOCLDY    62  53  72 S6        30.00F
HOT SPRINGS VA CLOUDY    56  48  74 NW3       30.05S
LYNCHBURG      FAIR      67  49  52 N8G17     30.00F
DANVILLE       PTSUNNY   65  52  62 N8        30.00F
SOUTH BOSTON*  MOCLDY    66  51  59 N8        29.99S
MARTINSVILLE   CLOUDY    61  49  62 NE7G16    30.03F
ROANOKE        PTSUNNY   70  51  51 N8        30.02F
BLACKSBURG     CLOUDY    63  51  64 NW8       30.06F
DUBLIN*        CLOUDY    64  51  62 NE9       30.05F
MARION*        PTSUNNY   64  47  54 CALM      30.07F
HILLSVILLE*    CLOUDY    61  48  64 N10G18    30.03S
RICHLANDS*     FAIR      61  31  32 NE8       30.07F
WISE*          PTSUNNY   64  43  45 NE6       30.10S
ABINGDON*      CLOUDY    65  49  55 SE8       30.06S
$$

MDZ021>025-VAZ099-100-231900-
SOUTHERN MARYLAND AND THE DELMARVA PENINSULA

CITY           SKY/WX    TMP DP  RH WIND       PRES   REMARKS
PATUXENT RIVER PTSUNNY   64  56  75 NW9       29.94S
BAY BRIDGE APT CLOUDY    70  57  64 W3        29.93S
LEONARDTOWN    CLOUDY    64  57  77 N3        29.96R
DOVER          CLOUDY    69  58  66 VRB1      29.87F
GEORGETOWN     CLOUDY    68  51  54 NE9       29.93S
EASTON         PTSUNNY   68  61  77 N5        29.97S
CAMBRIDGE      CLOUDY    66  55  68 NW3       29.93S
SALISBURY      CLOUDY    66  51  58 NE6       29.92S
OCEAN CITY     CLOUDY    62  51  67 NE12      29.92S
WALLOPS ISLAND CLOUDY    65  53  65 NE15      29.91F
ACCOMACK*      PTSUNNY   64  52  63 NE9       29.91S
$$

NCZ012>017-030>032-231900-
NORTH CENTRAL AND EASTERN NORTH CAROLINA

CITY           SKY/WX    TMP DP  RH WIND       PRES   REMARKS
ROANOKE RAPIDS CLOUDY    61  54  77 N5        29.95R
RALEIGH        CLOUDY    64  55  72 NE8G16    29.98S
ELIZABETH CITY CLOUDY    63  54  72 N14       29.91R
AHOSKIE*       RAIN      62  55  79 N5        29.94R
EDENTON*       CLOUDY    63  54  73 NE6       29.92R
CURRITUCK*     CLOUDY    63  54  73 N16G22    29.91R
KILL DEVIL HLS CLOUDY    61  55  81 N7        29.88R
MANTEO         CLOUDY    59  57  93 NE13G20   29.90R
CAPE HATTERAS  SUNNY     66  53  63 W9        29.88S
TARBORO*       CLOUDY    64  55  73 N6        29.95R
GOLDSBORO      LGT RAIN  62  62 100 N9        29.93R
WASHINGTON     LGT RAIN  60  58  93 NE9       29.92R
GREENVILLE     CLOUDY    64  57  77 N12       29.94F
NEW BERN       LGT RAIN  62  56  80 W8        29.93S
WILMINGTON     CLOUDY    67  53  61 NW14      29.94S
$$

VAZ048-231900-
ELSEWHERE

CITY           SKY/WX    TMP DP  RH WIND       PRES   REMARKS
HARRISBURG PA  CLOUDY    71  54  54 NW15      29.92F
BALTIMORE      CLOUDY    74  53  48 N6        29.91F
ANNAPOLIS      CLOUDY    65  60  84 SE9       29.93S
ANDREWS AFB    PTSUNNY   70  55  59 W9        29.92F
PHILADELPHIA   CLOUDY    76  54  46 E10       29.90F
HENDERSON NC     N/A     62  52  67 N9        29.97F
GREENSBORO     PTSUNNY   67  49  52 NE13      30.00S
ROCKY MOUNT    CLOUDY    64  55  72 N13       29.95S
$$

VAZ100-231900-
MARINE

STATION/POSITION TIME  TEMP    WIND        PRES    WAVE   SWELL
                       AIR SEA DIR/SP/G            HT/PER HT/PER
                 (UTC) (F)     (DEG/KT/KT) (MB)    (FT/S) (FT/S)
BRANDYWINE LGT   1700   61     290/  5/  6 1013.5R
CAPE MAY NJ      1700   65 62   80/  6/ 10 1013.2R
LEWES DE         1700   60 60   80/ 12/ 14 1013.5R
15NM E FENWICK I 1750   57 55              1012.3F   5/ 9
WACHAPREAGUE VA  1700   62 64   40/ 15/ 20 1012.3F
THOMAS POINT MD  1800   63 61  140/  7/  8 1014.6F
GOOSES REEF MD   1800   63 62  130/  2/  4 1014.8F   1
COVE POINT MD    1700   61      10/  4/  7 1014.3F
SOLOMONS ISLAND  1700   64 62  270/  4/  6   N/A
BISHOPS HEAD MD  1700   64 62  360/  7/ 12 1013.5F
PINEY POINT MD   1700          320/  9/ 10   N/A
POTOMAC MD       1800   63 62  360/ 10/ 12 1012.8R   1/ 2
CAMBRIDGE MD     1700   63 63  310/  6/  8 1012.8F
LEWISETTA VA     1700   63 63  360/  8/ 12 1013.3F
RAPPAHANNOCK LGT 1700          350/ 16/ 18 1013.3S
STINGRAY PT      1700   62 63   20/ 16/ 19 1013.4F   2/ 3
YORK RVR RNG VA  1700   63      20/ 21/ 24 1011.4F
YORKTOWN VA      1700   64 64   30/ 18/ 20 1012.2F
JAMESTOWN VA     1800   62 67  360/  6/ 10   N/A     0
DOMINION TERM VA 1700   64      30/ 10/ 18 1012.5S
KIPTOPEKE VA     1700      63   20/ 12/ 15   N/A
CHES BAY BRIDGE  1700   61 63   10/ 13/ 17 1011.7S
CAPE HENRY VA    1700   60      30/ 22/ 26   N/A
CHESAPEAKE LGHT  1700   57      10/ 24/ 26 1012.1R
WILLOUBY STN VA  1700   61      20/ 21/ 24 1013.2F
CAPE HENRY BUOY  1712      58                N/A     5/ 5   2/11
1ST LANDING BUOY 1800   60 62   30/ 16/ 19 1012.6R   3/ 4
CAPE CHARLES BUO 1726      60                N/A     5/ 5   3/ 8
OFFSHORE WE BUOY 1721      58                N/A     6/ 8   3/ 8
64NM E OF VA BCH 1750   57 62  360/ 17/ 19 1010.2R   7/ 8   5/ 8
DUCK PIER NC     1700   58 62   10/ 17/ 20 1010.9R
44100 DUCK FRF   1724      59                N/A     5/ 5   2/11
44056 DUCK FRF   1711      62                N/A     4/ 9   2/11
OREGON INLET NC  1700   58 64   10/ 10/ 14 1011.5R
HATTERAS NC      1700   62 67  290/ 12/ 15 1011.1F
DIAMOND SHLS NC  1750   62 66  300/ 12/ 14 1011.9R   3/ 9   2/ 9
CAPE LOOKOUT NC  1800   64     300/ 14C1F1C2F2C3F3C4F4C5F5C6F6C7F7C8M1C9!


USA.gov is the U.S. government's official web portal to all federal, state and local government web resources and services.